Powrót do katalogu

DYNAMICS EXPLORER 1

AktywnyNaukaHEO
NORAD 12624·PAYLOAD·🇺🇸 United States

Wystrzelony Aug 3, 1981 z Vandenberg Space Force Base

Loading…

Następne Przeloty (najbliższe 24 godziny)

TLE

ŚwieżeSource: Space-Track

Epoka: Sep 14, 2026, 11:55 UTC

1 12624U 81070A   26257.49680262  .00000108  00000-0  41578-3 0  9997
2 12624  90.9436  48.5988 6231520 171.2658 209.2781  3.52938174728300

Śledź DYNAMICS EXPLORER 1 w czasie rzeczywistym z AllMySat

Download on the App Store